Location: Hains Lake
(37.8540°N, 99.8578°W)
Time: 19:14:03
(UTC+00:00)

Courier 1B Rocket - Pass Details

Date: 20 April 2021
Orbit: 920 x 1202 km, 28.2° (Epoch: 05 May)

Event Time Altitude Azimuth Distance (km) Brightness Sun altitude
Rises 02:58:36 0° 242° (WSW) 3,706 8.4 -18.7°
Reaches altitude 10° 03:01:25 10° 233° (SW) 2,799 7.6 -19.2°
Maximum altitude 03:07:32 35° 170° (S) 1,651 5.8 -20.2°
Enters shadow 03:09:02 32° 146° (SE) 1,763 5.8 -20.5°
